www.pogodaiklimat.ru

Погода и климат >> Архив погоды >> Россия >> Астраханская область >> Верхний Баскунчак


АРХИВ ПОГОДЫ в Верхнем Баскунчаке

Время (UTC), дата Ветер
(напр.,м/с)
 
Видим.   Явления Облачность Т
(С)
Тd
(С)
f
(%)
Тe
(С)
Тes
(С)
Комфортность P
(гПа)
Po
(гПа)
Тmin
(С)
Tmax
(С)
R
(мм)
R24
(мм)
S
(см)
06 11.06 В 2 20 км ясно +30.5 +2.6 17 +28 +40 жарко 1018.8 1014.7
09 11.06 В 4 20 км ясно +34.3 -0.1 11 +31 +43 жарко 1017.8 1013.8
12 11.06 СВ 1 20 км 3/0
[Ci fib]
+35.4 -1.2 10 +32 +44 жарко 1015.9 1011.9
15 11.06 В 2 20 км 3/0
[Ci fib]
+35.0 -2.7 9 +31 +33 жарко 1014.8 1010.8 +36.1
18 11.06 Ю 2 20 км ясно +26.9 +1.9 20 +25 +25 комфорт 1015.5 1011.4
21 11.06 Ю 2 20 км ясно +24.1 +6.3 32 +24 +24 комфорт 1015.8 1011.6
00 12.06 СЗ 1 20 км ясно +19.5 +6.3 42 +21 +21 комфорт 1015.3 1011.2
03 12.06 СВ 1 20 км ясно +25.3 +5.8 29 +25 +28 комфорт 1015.4 1011.3 +18.8
06 12.06 С 2 20 км 3/0
[Ci fib]
+33.8 +2.2 14 +31 +42 жарко 1014.7 1010.7
09 12.06 В 2 20 км 3/0
[Ci fib]
+36.9 -1.5 9 +33 +50 жарко 1013.5 1009.6
12 12.06 СВ 2 20 км 4/0
[Ci fib]
+37.9 -1.9 8 +34 +44 очень
жарко
1012.2 1008.3
15 12.06 ЮЗ 1 20 км 4/0
[Ci fib]
+36.7 -3.1 8 +33 +35 жарко 1011.0 1007.1 +38.2
18 12.06 З 2 20 км ясно +28.9 +3.1 19 +27 +27 жарко 1011.7 1007.7
21 12.06 штиль 0 20 км ясно +24.9 +2.3 23 +24 +24 комфорт 1012.0 1007.9
00 13.06 С 2 20 км ясно +22.0 +2.9 28 +22 +22 комфорт 1011.3 1007.1
03 13.06 СВ 2 20 км ясно +25.9 +4.3 25 +25 +27 комфорт 1011.4 1007.3 +20.6
06 13.06 СВ 2 20 км ясно +35.1 +2.3 13 +32 +44 жарко 1011.4 1007.4
09 13.06 СЗ 2 20 км 4/4 1000 м
[Cu hum]
+38.3 +1.3 10 +35 +46 очень
жарко
1010.7 1006.8
12 13.06 С 7-13
{14}
10 км пыльный позёмок 6/6 1000 м
[Cu med, cong]
+34.5 +9.4 22 +33 +35 жарко 1011.0 1007.1
15 13.06 С 7-14
{14}
10 км пыльный позёмок 4/0
[Ac trans Ci sp]
+29.5 +10.0 30 +30 +30 жарко 1013.4 1009.4 +38.8
18 13.06 СВ 6-11
{16}
10 км пыльный позёмок 3/0
[Ci fib]
+23.0 +6.3 34 +24 +24 комфорт 1016.2 1012.1
21 13.06 СВ 4
{12}
20 км ясно +18.4 -1.4 26 +18 +18 1018.7 1014.5
00 14.06 С 4 20 км ясно +14.2 -0.3 37 +13 +13 1019.3 1015.0
03 14.06 СВ 5
{10}
20 км ясно +14.6 -0.1 37 +13 +15 1020.6 1016.3 +12.5
06 14.06 СВ 4
{11}
20 км 3/0
[Ci fib]
+20.7 -0.1 25 +21 +29 комфорт 1020.9 1016.7
09 14.06 СВ 4 20 км 3/0
[Ci fib]
+24.1 -4.4 15 +22 +34 комфорт 1020.1 1016.0
12 14.06 С 3 20 км ясно +26.6 -5.8 11 +24 +33 комфорт 1018.8 1014.7
15 14.06 С 1 20 км ясно +25.8 -7.2 11 +23 +25 комфорт 1017.5 1013.4 +26.9
18 14.06 штиль 0 20 км ясно +17.7 -2.8 25 +18 +18 1017.6 1013.4
21 14.06 штиль 0 20 км ясно +13.4 -2.7 33 +13 +13 1017.0 1012.7
00 15.06 ЮЗ 1 20 км ясно +12.9 -3.2 32 +13 +13 1015.9 1011.6
03 15.06 ЮЗ 1 20 км ясно +20.6 -2.3 21 +21 +24 комфорт 1015.3 1011.2 +12.4
06 15.06 З 4 20 км ясно +26.5 -2.3 15 +24 +32 комфорт 1014.4 1010.3
09 15.06 З 5-11
{11}
20 км ясно +29.6 -2.9 12 +26 +36 жарко 1013.2 1009.2
12 15.06 З 5
{12}
10 км пыльный позёмок ясно +32.1 -1.0 12 +29 +35 жарко 1011.0 1007.0
15 15.06 З 4
{11}
20 км ясно +31.5 +2.8 16 +29 +30 жарко 1009.5 1005.5 +32.5
18 15.06 СВ 4 20 км ясно +25.5 +4.3 25 +25 +25 комфорт 1010.5 1006.5
21 15.06 В 3 20 км 3/0
[Ac trans]
+22.9 +5.2 32 +23 +23 комфорт 1010.3 1006.2
00 16.06 В 2 20 км 3/0
[Ac trans]
+20.9 +5.0 35 +22 +22 комфорт 1010.2 1006.0
03 16.06 СВ 3 20 км 3/0
[Ac trans]
+22.2 +6.5 36 +23 +24 комфорт 1010.3 1006.1 +19.8
06 16.06 С 2 10 км слаб. ливневой дождь 10/10 600 м
[Cb calv]
+22.9 +10.9 47 +25 +25 комфорт 1011.4 1007.3
09 16.06 СВ 3 20 км {ливн. осадки} 6/0
[Ac trans Ci fib]
+28.1 +13.0 39 +30 +41 жарко 1010.3 1006.3
12 16.06 ЮЗ 1 20 км {ливн. осадки} 4/3 1000 м
[Cu hum Ci fib]
+29.8 +10.1 29 +30 +39 жарко 1009.3 1005.3
15 16.06 В 2 20 км 6/4 1000 м
[Cu med, cong Ci fib]
+29.5 +9.1 28 +29 +30 жарко 1008.3 1004.3 +31.5 0.3
18 16.06 СЗ 2
{15}
20 км в посл. час ливневой дождь {гроза} 4/4 1000 м
[Cu med, cong]
+21.1 +17.4 79 +25 +25 комфорт 1008.9 1004.7
21 16.06 З 2 20 км 8/8 600 м
[Sc]
+20.4 +15.7 74 +24 +24 комфорт 1009.8 1005.7
00 17.06 З 2 20 км {ливн. осадки} 8/8 600 м
[Sc]
+18.7 +16.7 88 +20 +20 1010.4 1006.3
03 17.06 С 1 20 км {ливн. осадки} 8/8 1000 м
[Cu med, cong]
+19.3 +16.9 86 +22 +23 комфорт 1009.8 1005.6 +18.5 3
06 17.06 СВ 3 20 км {ливн. осадки} 6/3 1000 м
[Cu med, cong Ci fib]
+24.2 +15.4 58 +27 +34 жарко 1010.6 1006.5
09 17.06 СВ 2 20 км 8/4 1000 м
[Cu med, cong Ci fib]
+28.0 +10.0 32 +28 +38 жарко 1011.0 1006.9
12 17.06 ЮЗ 2 20 км 8/6 1000 м
[Cu med, cong Ci sp]
+29.0 +11.3 33 +30 +34 жарко 1010.3 1006.3
15 17.06 штиль 0 20 км 6/3 1000 м
[Cu med, cong Ci sp]
+29.3 +9.8 30 +29 +31 жарко 1009.8 1005.8 +30.7
18 17.06 В 1 20 км 3/3 600 м
[Sc]
+25.4 +8.1 33 +26 +26 жарко 1011.3 1007.2
21 17.06 СВ 1 20 км ясно +21.2 +10.0 49 +23 +23 комфорт 1011.6 1007.5
00 18.06 С 1 20 км ясно +18.0 +10.1 60 +19 +19 1011.2 1007.0

 

Местоположение метеостанции Верхний Баскунчак (Астраханская область, Россия): широта 48.22 долгота 46.73 высота над уровнем моря 35 м.

В архиве по умолчанию представлена погода в Верхнем Баскунчаке за последнюю неделю. Архивные данные за месяц целиком и за предыдущие месяцы, начиная с января 2011 года, Вы можете получить, выбрав интересующий диапазон дат из раскрывающегося списка и нажав кнопку "Ввод!".


*Определитесь, кто Вы:
робот инопланетянин человек

Внимание! Время в таблицах - всемирное. Для получения местного времени необходимо прибавить поправку, которая равна 4 ч.

Смотрите также архив погоды в соседних городах и на ближайших метеорологических станциях:

Погода в Черный Яр (Астраханская область, Россия) (48 км)
Погода в Урде (Западно-Казахстанская область, Казахстан) (80 км)
Погода в Харабали (Астраханская область, Россия) (99 км)
Погода в Эльтоне (Волгоградская область, Россия) (102 км)
Погода в Юсте (Калмыкия, Россия) (125 км)
Погода в Жанибеке (Западно-Казахстанская область, Казахстан) (131 км)
Погода в Жанаказане (Западно-Казахстанская область, Казахстан) (144 км)
Погода в Малых Дербетах (Калмыкия, Россия) (154 км)
Погода в Жанауштогане (Атырауская область, Казахстан) (158 км)
Погода в Досанге (Астраханская область, Россия) (170 км)

Пояснения к столбцам:

Ветер - указаны скорость ветра в м/с - средняя за 10 мин, порывы в срок и между сроками (в фигурных скобках) и направление, откуда дует ветер: С - северный, СВ - северо-восточный, В - восточный, ЮВ - юго-восточный, Ю - южный, ЮЗ - юго-западный, З - западный, СЗ - северо-западный.
Видимость - горизонтальная дальность видимости в метрах или километрах. При видимости от 1 до 10 км при отсутствии осадков обычно наблюдается дымка, при ухудшении видимости до 1 км и менее - туман. В сухую погоду видимость может ухудшаться дымом, пылью или мглою.
Явления - указаны атмосферные явления, наблюдавшиеся в срок или в последний час перед сроком; фигурными скобками обозначены явления, наблюдавшиеся между сроками (за 1-3 часа до срока); квадратными скобками обозначены град или гололедные отложения с указанием их диаметра в мм.
Облачность - указаны через наклонную черту общая и нижняя облачность в баллах и высота нижней границы облаков в метрах; квадратными скобками обозначены формы облаков: Ci - перистые, Cs - перисто-слоистые, Cc - перисто-кучевые, Ac - высококучевые, As - высокослоистые, Sc - слоисто-кучевые, Ns - слоисто-дождевые, Cu - кучевые, Cb - кучево-дождевые. Подробнее классификацию облаков см. в Атласе облаков (PDF).
T - Температура воздуха - температура, измеренная на высоте 2 м над землей.
Td - Температура точки росы - температура, при понижении до которой содержащийся в воздухе водяной пар достигнет насыщения.
f - Относительная влажность воздуха - влажноcть воздуха, измеренная на высоте 2 м над землей.
Te - Эффективная температура - температура, которую ощущает одетый по сезону человек в тени. Характеристика душности погоды. При расчете учитывается влияние влажности воздуха и скорости ветра на теплоощущения человека.
Tes - Эффективная температура на солнце - температура, которую ощущает человек, с поправкой на солнечный нагрев. Характеристика знойности погоды. Зависит от высоты солнца над горизонтом, облачности и скорости ветра. Ночью, в пасмурную погоду, а также при ветре 12 м/с и более поправка равна нулю.
P - Атмосферное давление - приведенное к уровню моря атмосферное давление.
Po - Атмосферное давление - измеренное на уровне метеостанции атмосферное давление.
Tmin - Минимальная температура - минимум температуры воздуха на высоте 2 м над землей.
Tmax - Максимальная температура - максимум температуры воздуха на высоте 2 м над землей.
R - Количество осадков - Количество выпавших осадков за период времени, мм. При наведении курсора мыши на число - период времени, за который выпало указанное количество осадков.
R24 - Количество осадков - Количество выпавших осадков за 24 часа, мм.
S - Снежный покров - Высота снежного покрова, см. При наведении курсора мыши на число - состояние снежного покрова и степень покрытия местности в баллах.